Location: Arbon
(43.0005°N, 0.7472°E)
Time: 03:15:52
(UTC+00:00)

Cosmos 1626 Rocket - Pass Details

Date: 07 August 2020
Orbit: 603 x 631 km, 82.5° (Epoch: 27 September)

Event Time Altitude Azimuth Distance (km) Brightness Sun altitude
Rises 03:08:54 0° 352° (N) 2,874 7.5 -16.9°
Reaches altitude 10° 03:11:07 10° 352° (N) 1,963 6.6 -16.6°
Maximum altitude 03:15:28 88° 79° (E) 611 3.5 -16.1°
Drops below altitude 10° 03:19:46 10° 172° (S) 1,943 5.8 -15.5°
Enters shadow 03:19:53 - 172° (S) 1,990 5.8 -15.5°
